• In Hungary
  • List of Countries
  • For 7 days
  • Water Temperature
  • Satellite Maps
  • Weather Map
  • News
  • Weather Widgets
  • user-avatar
    Login

    Hourly Weather Moshary

    Today, 21 April, Saturday

    Time Temperature Precipitation Wind Pressure Humidity
    00:00 +10°C° 0 mm 4 mps 735 mmHg 80%
    01:00 +8°C° 0 mm 4 mps 735 mmHg 85%
    02:00 +9°C° 0 mm 3 mps 733 mmHg 90%
    03:00 +9°C° 0 mm 3 mps 733 mmHg 91%
    04:00 +10°C° 0 mm 4 mps 732 mmHg 92%
    05:00 +10°C° 0 mm 4 mps 731 mmHg 93%
    06:00 +10°C° 0 mm 5 mps 730 mmHg 87%
    07:00 +10°C° 0 mm 5 mps 729 mmHg 81%
    08:00 +13°C° 0 mm 6 mps 727 mmHg 73%
    09:00 +14°C° 0 mm 6 mps 726 mmHg 68%
    10:00 +16°C° 0 mm 7 mps 725 mmHg 64%
    11:00 +17°C° 0 mm 7 mps 724 mmHg 60%
    12:00 +16°C° 0.6 mm 8 mps 724 mmHg 59%
    13:00 +16°C° 0.6 mm 8 mps 723 mmHg 59%
    14:00 +15°C° 0.6 mm 9 mps 723 mmHg 58%
    15:00 +12°C° 0.2 mm 9 mps 723 mmHg 59%
    16:00 +10°C° 0.2 mm 9 mps 724 mmHg 61%
    17:00 +8°C° 0.2 mm 9 mps 724 mmHg 62%
    18:00 +7°C° 0.1 mm 9 mps 725 mmHg 64%
    19:00 +6°C° 0.1 mm 8 mps 725 mmHg 66%
    20:00 +5°C° 0.1 mm 8 mps 726 mmHg 68%
    21:00 +4°C° 0 mm 7 mps 726 mmHg 69%
    22:00 +4°C° 0 mm 7 mps 727 mmHg 71%
    23:00 +4°C° 0 mm 7 mps 727 mmHg 72%

    Tomorrow, 22 April, Sunday

    Time Temperature Precipitation Wind Pressure Humidity
    00:00 +3°C° 0 mm 6 mps 728 mmHg 74%
    01:00 +3°C° 0 mm 6 mps 728 mmHg 76%
    02:00 +3°C° 0 mm 5 mps 729 mmHg 78%
    03:00 +2°C° 0 mm 5 mps 729 mmHg 79%
    04:00 +2°C° 0 mm 5 mps 729 mmHg 79%
    05:00 +3°C° 0 mm 4 mps 730 mmHg 80%
    06:00 +3°C° 0.1 mm 4 mps 730 mmHg 79%
    07:00 +3°C° 0.1 mm 4 mps 730 mmHg 78%
    08:00 +3°C° 0.1 mm 4 mps 731 mmHg 77%
    09:00 +3°C° 0 mm 4 mps 731 mmHg 74%
    10:00 +4°C° 0 mm 4 mps 731 mmHg 71%
    11:00 +4°C° 0 mm 4 mps 732 mmHg 68%
    12:00 +4°C° 0 mm 4 mps 732 mmHg 66%
    13:00 +4°C° 0 mm 4 mps 733 mmHg 64%
    14:00 +5°C° 0 mm 4 mps 733 mmHg 63%
    15:00 +4°C° 0 mm 4 mps 734 mmHg 62%
    16:00 +4°C° 0 mm 4 mps 734 mmHg 61%
    17:00 +4°C° 0 mm 4 mps 734 mmHg 61%
    18:00 +3°C° 0 mm 4 mps 735 mmHg 64%
    19:00 +2°C° 0 mm 3 mps 735 mmHg 67%
    20:00 +1°C° 0 mm 3 mps 736 mmHg 70%
    21:00 +1°C° 0 mm 2 mps 737 mmHg 73%
    22:00 -1°C° 0 mm 2 mps 737 mmHg 76%
    23:00 -2°C° 0 mm 2 mps 737 mmHg 79%

    Day after tomorrow, 23 April, Monday

    Time Temperature Precipitation Wind Pressure Humidity
    00:00 -2°C° 0 mm 2 mps 738 mmHg 80%
    01:00 -1°C° 0 mm 1 mps 738 mmHg 80%
    02:00 -1°C° 0 mm 1 mps 739 mmHg 81%
    03:00 -1°C° 0 mm 1 mps 739 mmHg 80%
    04:00 -3°C° 0 mm 2 mps 739 mmHg 80%
    05:00 -3°C° 0 mm 2 mps 740 mmHg 80%
    06:00 -2°C° 0 mm 2 mps 740 mmHg 70%
    07:00 +1°C° 0 mm 2 mps 740 mmHg 60%
    08:00 +1°C° 0 mm 3 mps 741 mmHg 50%
    09:00 +2°C° 0 mm 3 mps 741 mmHg 45%
    10:00 +4°C° 0 mm 3 mps 741 mmHg 41%
    11:00 +6°C° 0 mm 2 mps 741 mmHg 36%
    12:00 +6°C° 0 mm 2 mps 741 mmHg 35%
    13:00 +7°C° 0 mm 2 mps 740 mmHg 34%
    14:00 +8°C° 0 mm 2 mps 740 mmHg 33%
    15:00 +7°C° 0 mm 2 mps 740 mmHg 35%
    16:00 +7°C° 0 mm 2 mps 740 mmHg 37%
    17:00 +7°C° 0 mm 2 mps 740 mmHg 39%
    18:00 +6°C° 0 mm 1 mps 740 mmHg 46%
    19:00 +4°C° 0 mm 1 mps 740 mmHg 54%
    20:00 +2°C° 0 mm 1 mps 740 mmHg 61%
    21:00 +2°C° 0 mm 1 mps 740 mmHg 63%
    22:00 +1°C° 0 mm 1 mps 740 mmHg 64%
    23:00 +1°C° 0 mm 1 mps 740 mmHg 66%

    24 April, Tuesday

    Time Temperature Precipitation Wind Pressure Humidity
    00:00 +1°C° 0 mm 1 mps 740 mmHg 67%
    01:00 0°C° 0 mm 1 mps 740 mmHg 67%
    02:00 0°C° 0 mm 1 mps 739 mmHg 68%
    03:00 0°C° 0 mm 1 mps 739 mmHg 67%
    04:00 -1°C° 0 mm 2 mps 739 mmHg 66%
    05:00 -1°C° 0 mm 2 mps 739 mmHg 66%
    06:00 +2°C° 0 mm 2 mps 739 mmHg 60%
    07:00 +4°C° 0 mm 2 mps 738 mmHg 54%
    08:00 +4°C° 0 mm 3 mps 738 mmHg 47%
    09:00 +7°C° 0 mm 3 mps 738 mmHg 46%
    10:00 +8°C° 0 mm 3 mps 737 mmHg 44%
    11:00 +10°C° 0 mm 4 mps 737 mmHg 43%
    12:00 +10°C° 0 mm 4 mps 737 mmHg 44%
    13:00 +10°C° 0 mm 4 mps 736 mmHg 46%
    14:00 +11°C° 0 mm 4 mps 736 mmHg 48%
    15:00 +10°C° 0.1 mm 4 mps 736 mmHg 55%
    16:00 +10°C° 0.1 mm 4 mps 735 mmHg 61%
    17:00 +9°C° 0.1 mm 3 mps 735 mmHg 68%
    18:00 +8°C° 0.2 mm 3 mps 735 mmHg 75%
    19:00 +7°C° 0.2 mm 3 mps 734 mmHg 82%
    20:00 +5°C° 0.2 mm 3 mps 734 mmHg 89%
    21:00 +5°C° 0 mm 3 mps 734 mmHg 91%
    22:00 +5°C° 0 mm 3 mps 734 mmHg 93%
    23:00 +5°C° 0 mm 3 mps 734 mmHg 94%

    25 April, Wednesday

    Time Temperature Precipitation Wind Pressure Humidity
    00:00 +5°C° 0.1 mm 3 mps 733 mmHg 95%
    01:00 +5°C° 0.1 mm 3 mps 733 mmHg 95%
    02:00 +5°C° 0.1 mm 3 mps 733 mmHg 95%
    03:00 +5°C° 0 mm 3 mps 732 mmHg 95%
    04:00 +5°C° 0 mm 3 mps 732 mmHg 95%
    05:00 +5°C° 0 mm 3 mps 731 mmHg 95%
    06:00 +5°C° 0.7 mm 3 mps 731 mmHg 93%
    07:00 +5°C° 0.7 mm 4 mps 730 mmHg 91%
    08:00 +5°C° 0.7 mm 4 mps 730 mmHg 89%
    09:00 +6°C° 0.5 mm 4 mps 730 mmHg 87%
    10:00 +6°C° 0.5 mm 4 mps 730 mmHg 85%
    11:00 +7°C° 0.5 mm 4 mps 729 mmHg 83%
    12:00 +8°C° 0.3 mm 5 mps 729 mmHg 77%
    13:00 +8°C° 0.3 mm 5 mps 730 mmHg 70%
    14:00 +9°C° 0.3 mm 5 mps 730 mmHg 64%
    15:00 +9°C° 0.3 mm 5 mps 730 mmHg 66%
    16:00 +8°C° 0.3 mm 5 mps 730 mmHg 69%
    17:00 +8°C° 0.3 mm 5 mps 730 mmHg 71%
    18:00 +7°C° 0.3 mm 5 mps 731 mmHg 76%
    19:00 +6°C° 0.3 mm 4 mps 731 mmHg 82%
    20:00 +5°C° 0.3 mm 4 mps 731 mmHg 87%
    21:00 +5°C° 0.4 mm 4 mps 732 mmHg 88%
    22:00 +5°C° 0.4 mm 4 mps 732 mmHg 88%
    23:00 +5°C° 0.4 mm 4 mps 732 mmHg 89%

    26 April, Thursday

    Time Temperature Precipitation Wind Pressure Humidity
    00:00 +4°C° 0.1 mm 3 mps 732 mmHg 90%
    01:00 +4°C° 0.1 mm 3 mps 732 mmHg 90%
    02:00 +4°C° 0.1 mm 3 mps 733 mmHg 91%
    03:00 +3°C° 0 mm 3 mps 733 mmHg 92%
    04:00 +3°C° 0 mm 3 mps 733 mmHg 94%
    05:00 +2°C° 0 mm 3 mps 733 mmHg 95%
    06:00 +3°C° 0 mm 3 mps 733 mmHg 91%
    07:00 +4°C° 0 mm 3 mps 733 mmHg 87%
    08:00 +5°C° 0 mm 3 mps 734 mmHg 83%
    09:00 +7°C° 0.1 mm 3 mps 734 mmHg 80%
    10:00 +8°C° 0.1 mm 3 mps 734 mmHg 77%
    11:00 +8°C° 0.1 mm 3 mps 734 mmHg 74%
    12:00 +8°C° 0.1 mm 3 mps 733 mmHg 75%
    13:00 +8°C° 0.1 mm 3 mps 733 mmHg 76%
    14:00 +8°C° 0.1 mm 3 mps 733 mmHg 76%
    15:00 +8°C° 0 mm 2 mps 733 mmHg 76%
    16:00 +8°C° 0 mm 2 mps 732 mmHg 75%
    17:00 +8°C° 0 mm 2 mps 732 mmHg 74%
    18:00 +7°C° 0 mm 2 mps 732 mmHg 80%
    19:00 +7°C° 0 mm 2 mps 732 mmHg 85%
    20:00 +6°C° 0 mm 2 mps 733 mmHg 90%
    21:00 +5°C° 0 mm 2 mps 733 mmHg 92%
    22:00 +5°C° 0 mm 2 mps 733 mmHg 94%
    23:00 +5°C° 0 mm 2 mps 733 mmHg 97%
    Show more